[Iaude] MPEC X296: 2023 XQ13 [a=2.00,e=0.52,i=9.1,H=22.4]

mpec at marsden.cfa.harvard.edu mpec at marsden.cfa.harvard.edu
Fri Dec 15 02:18:00 EST 2023


M.P.E.C. 2023-X296                            Issued 2023 December 15, 07:16 UT

     The Minor Planet Electronic Circulars contain information on unusual
         minor planets, routine data on comets and natural satellites,
         and occasional editorial announcements.  They are published
    on behalf of Division F of the International Astronomical Union by the
          Minor Planet Center, Smithsonian Astrophysical Observatory,
                          Cambridge, MA 02138, U.S.A.
			  
             Prepared using the Tamkin Foundation Computer Network

                              MPC at CFA.HARVARD.EDU
            URL https://www.minorplanetcenter.net/    ISSN 1523-6714

                                   2023 XQ13                                    


Observations:
     K23X13Q*1C2023 12 13.33001307 16 26.029+33 06 59.98         21.27GVEX296G96
     K23X13Q 1C2023 12 13.33528007 16 26.396+33 06 55.73         20.39GVEX296G96
     K23X13Q 1C2023 12 13.34056107 16 26.818+33 06 51.66         20.29GVEX296G96
     K23X13Q 1C2023 12 13.34582007 16 27.142+33 06 46.62         20.58GVEX296G96
     K23X13Q mC2023 12 13.41592607 16 32.100+33 05 43.50         22.22GVEX296I52
     K23X13Q mC2023 12 13.41949907 16 32.340+33 05 40.30         21.74GVEX296I52
     K23X13Q mC2023 12 13.42397907 16 32.660+33 05 35.60               VEX296I52
     K23X13Q mC2023 12 13.42783307 16 32.880+33 05 32.80               VEX296I52
     K23X13Q KC2023 12 14.23889207 17 41.38 +32 52 55.4          21.1 GVEX296H21
     K23X13Q KC2023 12 14.24448807 17 41.80 +32 52 50.3          21.1 GVEX296H21
     K23X13Q KC2023 12 14.24570807 17 42.529+32 52 49.73         20.82GVEX296I52
     K23X13Q KC2023 12 14.24990707 17 42.853+32 52 45.37         21.41GVEX296I52
     K23X13Q KC2023 12 14.25045507 17 42.23 +32 52 44.8          21.4 GVEX296H21
     K23X13Q KC2023 12 14.25409707 17 43.213+32 52 41.92         20.64GVEX296I52
     K23X13Q KC2023 12 14.25797507 17 43.472+32 52 38.39         21.28GVEX296I52
     K23X13Q 1C2023 12 14.35800807 17 50.676+32 51 05.80         21.29GVEX296G96
     K23X13Q 1C2023 12 14.36321907 17 51.097+32 51 00.72         20.38GVEX296G96
     K23X13Q 1C2023 12 14.36845907 17 51.479+32 50 55.57         21.16GVEX296G96
     K23X13Q KC2023 12 14.46071807 17 58.002+32 49 24.78         20.86GVEX296I52
     K23X13Q KC2023 12 14.46625807 17 58.416+32 49 19.34         21.06GVEX296I52
     K23X13Q KC2023 12 14.47174307 17 58.805+32 49 13.87         21.12GVEX296I52
     K23X13Q KC2023 12 14.47534907 17 59.064+32 49 09.80         21.25GVEX296I52
     K23X13Q KC2023 12 15.26239207 19 06.34 +32 35 58.2                VEX296H21
     K23X13Q KC2023 12 15.26669207 19 06.65 +32 35 53.7          21.3 GVEX296H21
     K23X13Q KC2023 12 15.27242207 19 07.06 +32 35 47.9          21.1 GVEX296H21
     K23X13Q KC2023 12 15.27710407 19 07.40 +32 35 43.0          21.0 GVEX296H21

Observer details:
G96 Mt. Lemmon Survey.  Observer J. K. Hogan.  Measurers E. C. Beshore, D.
    Fay, J. B. Fazekas, D. C. Fuls, A. R. Gibbs, A. D. Grauer, H. Groeller, J.
    K. Hogan, R. A. Kowalski, S. M. Larson, G. J. Leonard, D. Rankin, R. L.
    Seaman, F. C. Shelly, K. W. Wierzchos.  1.5-m reflector + 10K CCD.
H21 Astronomical Research Observatory, Westfield.  Observer R. Holmes.
    Measurers T. Linder, R. Holmes, L. Horn.  0.76-m f/3.0 astrograph + CCD,
    0.81-m f/4.0 astrograph + CCD.
I52 Steward Observatory, Mt. Lemmon Station.  Observer K. W. Wierzchos.
    Measurers E. C. Beshore, D. Fay, J. B. Fazekas, D. C. Fuls, A. R. Gibbs,
    A. D. Grauer, H. Groeller, J. K. Hogan, R. A. Kowalski, S. M. Larson, G.
    J. Leonard, D. Rankin, R. L. Seaman, F. C. Shelly, K. W. Wierzchos.  1.0-m
    prime focus + CCD.

Orbital elements:
2023 XQ13                                                Earth MOID = 0.0665 AU
Epoch 2023 Sept. 13.0 TT = JDT 2460200.5                MPC                     
M 303.75075              (2000.0)            P               Q                  
n   0.34899510     Peri.  237.62225     -0.93445524     -0.32075357             
a   1.9979740      Node   283.26833     +0.35598849     -0.83165111             
e   0.5241649      Incl.    9.14139     +0.00809992     -0.45329194             
P   2.82           H   22.40          G   0.15           U   9                  
Residuals in seconds of arc
231213 G96  0.1-  0.4-    231214 H21  0.1+  0.1+    231214 I52  0.1-  0.0
231213 G96  0.2-  0.1-    231214 I52  0.4-  0.4+    231214 I52  0.0   0.2+
231213 G96  0.4+  0.4+    231214 I52  0.3-  0.2-    231214 I52  0.1-  0.3+
231213 G96  0.2-  0.0     231214 H21  0.0   0.1+    231214 I52  0.1-  0.1-
231213 I52  0.1-  0.3-    231214 I52  0.3+  0.1+    231215 H21  0.1+  0.1+
231213 I52  0.3-  0.3-    231214 I52  0.1-  0.1+    231215 H21  0.0   0.0
231213 I52  0.3-  0.9-    231214 G96  0.4-  0.0     231215 H21  0.1-  0.0
231213 I52  0.9-  0.1-    231214 G96  0.3+  0.1-    231215 H21  0.1-  0.2-
231214 H21  0.1-  0.0     231214 G96  0.4+  0.2-

Ephemeris:
2023 XQ13                a,e,i = 2.00, 0.52, 9                   q = 0.9507
Date    TT    R. A. (2000) Decl.     Delta      r    Elong.  Phase     V
2023 11 15    06 36 19.3 +35 45 30   0.6156  1.4802   133.2    29.2    23.5
...
2023 11 30    06 58 09.5 +35 10 28   0.4441  1.3680   143.2    25.6    22.5
...
2023 12 08    07 09 09.4 +34 12 18   0.3628  1.3089   148.7    23.0    21.9
...
2023 12 14    07 17 20.7 +32 56 47   0.3066  1.2652   152.9    20.7    21.4
2023 12 15    07 18 43.7 +32 40 32   0.2977  1.2581   153.7    20.3    21.3
2023 12 16    07 20 07.5 +32 23 00   0.2888  1.2509   154.4    19.9    21.2
...
2023 12 22    07 28 55.7 +30 05 04   0.2381  1.2087   158.7    17.2    20.6
...
2023 12 30    07 42 59.5 +24 47 21   0.1771  1.1547   164.0    13.5    19.7
...
2024 01 14    08 31 18.9 -03 13 23   0.09018 1.0642   152.2    25.5    18.5

A. U. Tomatic                (C) Copyright 2023 MPC           M.P.E.C. 2023-X296





More information about the Iaude mailing list